Flag for Sweden Weather past 2 weeks in Linköping, Sweden

Now
52 °F

Passing clouds.


Feels Like: 50 °F
Forecast: 50 / 64 °F
Wind: 6 mph from South

Location: Linkoping / Saab

Current Time: Aug 23, 2014 at 3:39:45 AM

Latest Report: Aug 23, 2014 at 3:20 AM


Visibility: N/A

Pressure: 29.68 "Hg

Humidity: 94%

Dew point: 50 °F

Location of LinköpingLocation

Historic Weather in Linköping — Graph

°F

Linköping temperature yesterday

Maximum temperature yesterday: 64 °F (at 4:50 PM)
Minimum temperature yesterday: 48 °F (at 4:20 AM)
Average temperature yesterday: 55 °F

Past Weeks' High & Low Weather Summary

 TemperatureHumidityPressure
High79 °F (Aug 9, 2:50 PM)100% (Aug 8, 5:50 AM)29.95 "Hg (Aug 8, 5:50 AM)
Low48 °F (Aug 19, 3:20 AM)40% (Aug 13, 3:50 PM)29.30 "Hg (Aug 18, 1:20 PM)
Average60 °F77%29.64 "Hg
* Reported Aug 8 2:20 AM — Aug 23 2:20 AM, Linköping, Weather by CustomWeather, © 2014

Note: Actual official high and low records may vary slightly from our data, if they occured in-between our weather recording intervals... More about our weather records

Advertising

Linköping weather history for previous 24 hours

 ConditionsComfort  
Time TempWeatherWind HumidityBarometerVisibility
2:20 AM
Aug 23
52 °FPassing clouds.6 mph94%29.68 "HgN/A
1:50 AM52 °FPassing clouds.6 mph94%29.68 "HgN/A
1:20 AM52 °FPassing clouds.6 mph94%29.71 "HgN/A
12:50 AM52 °FPassing clouds.7 mph94%29.71 "HgN/A
12:20 AM54 °FPassing clouds.6 mph88%29.71 "HgN/A
11:50 PM
Aug 22
54 °FPassing clouds.5 mph88%29.71 "HgN/A
11:20 PM54 °FPassing clouds.6 mph88%29.71 "HgN/A
10:50 PM55 °FPassing clouds.6 mph82%29.71 "HgN/A
10:20 PM55 °FPassing clouds.5 mph82%29.74 "HgN/A
9:50 PM54 °FPassing clouds.6 mph88%29.74 "HgN/A
9:20 PM55 °FBroken clouds.5 mph82%29.74 "HgN/A
8:50 PM55 °FScattered clouds.6 mph82%29.74 "HgN/A
8:20 PM55 °FScattered clouds.5 mph82%29.74 "HgN/A
7:50 PM55 °FSunny.5 mph82%29.74 "Hg10 mi
7:20 PM55 °FSunny.3 mph77%29.74 "Hg10 mi
6:50 PM57 °FPartly sunny.5 mph72%29.74 "HgN/A
6:20 PM59 °FRain showers. Broken clouds.9 mph63%29.74 "HgN/A
5:50 PM61 °FRain showers. Broken clouds.5 mph63%29.74 "HgN/A
5:20 PM63 °FPassing clouds.6 mph56%29.74 "HgN/A
4:50 PM64 °FPassing clouds.8 mph52%29.74 "HgN/A
4:20 PM63 °FPassing clouds.5 mph56%29.74 "HgN/A
3:50 PM63 °FScattered clouds.9 mph56%29.74 "HgN/A
3:20 PM61 °FPartly sunny.9 mph55%29.77 "HgN/A
2:50 PM63 °FBroken clouds.10 mph56%29.77 "HgN/A
2:20 PM61 °FScattered clouds.9 mph59%29.77 "HgN/A
1:50 PM61 °FScattered clouds.10 mph59%29.77 "HgN/A
1:20 PM61 °FPartly sunny.14 mph59%29.77 "HgN/A
12:50 PM59 °FBroken clouds.13 mph63%29.77 "HgN/A
12:20 PM63 °FScattered clouds.12 mph56%29.77 "HgN/A
11:50 AM61 °FScattered clouds.12 mph59%29.77 "HgN/A
11:20 AM59 °FPartly sunny.12 mph63%29.77 "HgN/A
10:50 AM59 °FScattered clouds.10 mph68%29.77 "HgN/A
10:20 AM57 °FScattered clouds.12 mph72%29.77 "HgN/A
9:50 AM55 °FBroken clouds.8 mph77%29.77 "HgN/A
9:20 AM55 °FBroken clouds.12 mph77%29.77 "HgN/A
8:50 AM54 °FPassing clouds.10 mph82%29.77 "HgN/A
8:20 AM52 °FPassing clouds.9 mph88%29.77 "HgN/A
7:50 AM52 °FPassing clouds.8 mph88%29.77 "HgN/A
7:20 AM50 °FPassing clouds.8 mph88%29.77 "HgN/A
6:50 AM50 °FPassing clouds.8 mph88%29.77 "HgN/A
6:20 AM48 °FClear.8 mph94%29.77 "Hg10 mi
5:50 AM48 °FClear.6 mph94%29.77 "Hg10 mi
5:20 AM48 °FCool.7 mph94%29.77 "HgN/A
4:20 AM48 °FCool.6 mph94%29.77 "HgN/A
3:50 AM50 °FCool.7 mph88%29.77 "HgN/A
3:20 AM50 °FCool.6 mph88%29.74 "HgN/A
Weather by CustomWeather, © 2014

See weather overviewHow to use our weather pages